Location: Newark
(49.8969°N, 3.3422°E)
Time: 00:20:02
(UTC+00:00)

Explorer 7 - Pass Details

Date: 26 January 2020
Orbit: 485 x 679 km, 50.3° (Epoch: 24 February)

Event Time Altitude Azimuth Distance (km) Brightness Sun altitude
Rises 00:15:24 0° 259° (W) 2,551 - -58.8°
Reaches altitude 10° 00:17:34 10° 260° (W) 1,667 - -58.8°
Maximum altitude 00:21:19 89° 190° (S) 492 - -58.7°
Drops below altitude 10° 00:25:08 10° 82° (E) 1,693 - -58.6°
Sets 00:27:21 0° 82° (E) 2,596 - -58.5°
